Location: Les Bouffres
(48.0145°N, 1.4595°W)
Time: 00:06:29
(UTC+00:00)

Daily predictions for brighter satellites

Satellite Brightness Start Highest point End
(mag) Time Altitude Azimuth Time Altitude Azimuth Time Altitude Azimuth
ATLAS 2AS CENTAUR R/B 4.1 01:22:05 34° ENE 01:22:05 34° ENE 01:25:59 10° NE
Resurs 1-4 Rocket 4.4 01:41:58 10° NNE 01:43:36 20° NNE 01:43:36 20° NNE
NOSS 3-1 (A) 4.5 01:55:41 54° NNE 01:56:09 55° NE 02:04:34 10° ESE
SL-16 R/B 3.9 02:10:00 31° N 02:10:00 31° N 02:13:01 10° NNW
USA 281 4.1 02:02:04 10° NE 02:07:16 43° E 02:07:16 43° E
ADEOS II 4.0 02:04:14 10° NNE 02:06:36 26° NNE 02:06:36 26° NNE
CZ-2D R/B 3.9 02:09:13 10° NNE 02:11:32 27° NNE 02:11:32 27° NNE
CZ-2C R/B 4.4 02:19:07 26° N 02:19:07 26° N 02:21:37 10° N
IDEFIX/ARIANE 42P 4.4 02:17:42 10° NNE 02:19:53 26° N 02:19:53 26° N
Lacrosse 5 rocket 4.3 02:31:30 13° ENE 02:31:30 13° ENE 02:31:59 10° ENE
Lacrosse 4 Rocket 4.5 02:33:06 10° N 02:33:06 10° N 02:33:14 10° N
Cosmos 2082 Rocket 4.2 02:32:50 19° NNW 02:32:50 19° NNW 02:35:23 10° N
BREEZE-M DEB (TANK) 4.5 02:29:47 72° WNW 02:30:57 84° N 02:59:51 10° E
ATLAS CENTAUR R/B 3.6 02:34:10 69° NNW 02:34:10 69° NNW 02:45:32 10° ENE
FENGYUN 3A 4.5 02:40:57 10° NNE 02:44:54 48° NE 02:44:54 48° NE
ATLAS 5 CENTAUR R/B 4.3 02:46:58 11° N 02:46:58 11° N 02:48:00 10° NNE
COSMOS 2428 3.6 02:42:26 10° NNW 02:47:57 48° NE 02:53:26 10° SE
CZ-2C R/B 4.0 02:52:03 10° NE 02:56:05 27° E 02:56:50 26° ESE
ALOS 3.5 02:53:18 10° NNE 02:56:20 38° NE 02:56:20 38° NE
USA 215 3.5 02:54:36 10° ESE 03:01:05 66° NNE 03:03:31 40° NW
ATLAS 2AS CENTAUR R/B 3.3 03:09:31 45° NW 03:10:05 45° NW 03:16:58 10° NE
Cosmos 1655 Rocket 3.9 03:13:15 82° W 03:13:18 82° W 03:19:45 10° N
SL-08 ROCKET BODY 4.3 03:16:47 84° W 03:16:51 84° W 03:22:58 10° N
CZ-2C R/B 3.2 03:13:39 10° NNE 03:19:25 78° ESE 03:19:54 72° SSE
Meteor 2-12 Rocket 4.3 03:20:51 75° WNW 03:20:51 75° WNW 03:26:58 10° N
Thor Agena Rocket 3.6 03:16:41 10° NNE 03:21:27 71° N 03:21:27 71° N
Resurs 1-4 Rocket 3.9 03:22:27 10° N 03:24:39 20° NNW 03:24:39 20° NNW
Cosmos 1743 Rocket 4.1 03:22:55 10° N 03:27:12 54° ENE 03:27:39 51° ESE
Meteor 1-14 Rocket 4.2 03:22:57 10° NNW 03:28:58 80° W 03:30:00 62° SSW
Cosmos 1805 Rocket 4.2 03:25:18 10° N 03:29:35 54° ENE 03:30:45 41° SE
USA 229 DEB 3.9 03:23:44 10° NW 03:31:08 83° NE 03:39:10 10° SE
USA 229 3.9 03:23:50 10° NW 03:31:14 83° NE 03:39:14 10° SE
Cosmos 1867 3.9 03:33:23 53° SSE 03:33:23 53° SSE 03:37:33 10° SSE
ATLAS CENTAUR R/B 4.0 03:35:20 10° N 03:37:07 13° NNE 03:38:54 10° ENE
Sich 1 3.4 03:34:07 10° N 03:38:26 61° ENE 03:41:10 21° SSE
Meteor 2-6 Rocket 3.9 03:38:03 70° SSW 03:38:40 84° WNW 03:44:06 10° N
GP-B 3.6 03:38:17 30° SSE 03:40:17 58° E 03:44:38 10° N
YAOGAN 6 3.4 03:42:41 10° NNE 03:45:35 47° ENE 03:45:35 47° ENE
BlueWalker 3 3.7 03:48:24 23° SE 03:48:24 23° SE 03:50:00 10° SE
NOSS 3-1 (A) 4.2 03:43:24 29° WNW 03:47:17 51° WSW 03:55:46 10° SSE
Meteor 1-10 Rocket 4.3 03:44:45 27° S 03:47:51 74° E 03:53:23 10° NNE
ADEOS II 3.5 03:44:30 10° N 03:47:29 23° NW 03:47:29 23° NW
SL-16 R/B 4.5 03:55:06 12° NW 03:55:06 12° NW 03:55:44 10° NW
IRS-1D 3.4 03:47:21 10° NNE 03:52:41 78° WNW 03:54:06 49° SSW
USA 281 3.6 03:46:43 10° NNE 03:52:50 43° NW 03:54:08 39° W
CZ-2D R/B 4.0 03:50:37 10° NNW 03:52:50 16° NW 03:52:50 16° NW
Envisat 3.0 03:49:49 10° NNE 03:54:55 77° ESE 03:57:47 27° S
Cosmos 2315 Rocket 4.5 03:52:20 10° NNW 03:57:55 39° W 03:57:55 39° W
Cosmos 2297 Rocket 3.2 03:55:04 11° S 04:00:17 45° ESE 04:05:39 10° NE
Cosmos 1536 2.5 04:02:33 10° NNW 04:06:27 78° W 04:07:16 53° S
Lacrosse 5 rocket 2.0 04:06:40 37° NNW 04:06:52 37° NNW 04:10:31 10° NE
Cosmos 1125 Rocket 3.6 04:06:13 46° W 04:07:08 52° WNW 04:12:14 10° NNE
Cosmos 2237 Rocket 2.3 04:03:34 10° NNW 04:09:17 75° ENE 04:14:56 10° SSE
METEOR-M 4.1 04:06:18 10° N 04:11:36 62° WNW 04:13:57 33° SW
Nadezhda 2 Rocket 4.5 04:08:39 18° SSW 04:13:34 69° WNW 04:19:59 10° N
SL-16 R/B 3.9 04:13:29 10° NNW 04:18:40 34° NE 04:23:49 10° ESE
Okean 1 3.4 04:16:06 14° S 04:19:19 70° E 04:23:10 10° NNE
Cosmos 1378 4.5 04:21:27 23° NNW 04:21:27 23° NNW 04:23:17 10° N
YAOGAN 11 4.3 04:16:53 10° S 04:21:14 49° W 04:25:34 10° NNW
Cosmos 1726 3.5 04:19:15 10° N 04:22:29 37° ENE 04:25:42 10° SE
H-2A R/B 4.0 04:20:15 10° NNE 04:23:31 37° E 04:26:46 10° SSE
COBE Rocket 3.8 04:22:33 10° N 04:27:22 73° WNW 04:32:18 10° SSW
PAYLOAD A 4.1 04:24:46 10° N 04:29:31 50° WNW 04:32:20 24° SW
Cosmos 2344 4.5 04:22:38 10° S 04:29:48 44° ESE 04:36:42 10° NE
Nadezhda 1 Rocket 3.9 04:25:15 10° N 04:31:34 79° W 04:37:43 10° S
COSMOS 2428 3.3 04:27:01 10° NW 04:32:00 32° WSW 04:36:59 10° SSW
SL-08 R/B 4.4 04:26:14 10° SSW 04:32:16 62° WNW 04:38:20 10° N
ATLAS 5 CENTAUR R/B 4.1 04:30:00 10° NNW 04:32:32 14° NNE 04:35:19 10° NE
NOSS 0 Rocket 4.1 04:26:58 10° NW 04:32:59 50° WSW 04:38:58 10° S
CBERS-1 3.9 04:28:01 10° N 04:33:08 72° WNW 04:38:14 10° SSW
CZ-2C R/B 2.8 04:29:58 10° N 04:34:23 39° WNW 04:36:09 28° WSW
ALOS 3.7 04:31:30 10° NNW 04:34:42 19° WNW 04:34:42 19° WNW
Cosmos 1151 Rocket 3.0 04:31:38 15° SSW 04:35:08 63° WNW 04:39:31 10° N
Cosmos 1733 3.9 04:38:32 10° N 04:42:11 54° ENE 04:45:48 10° SSE
USA 215 3.4 04:37:53 10° SSE 04:44:13 51° SW 04:50:36 10° WNW
BREEZE-M DEB (TANK) 3.7 04:42:21 24° WSW 04:44:55 83° SSE 05:01:03 10° ENE
Cosmos 1666 Rocket 3.4 04:40:34 10° NNW 04:44:55 68° W 04:49:14 10° S
Meteor 2-20 Rocket 4.4 04:39:38 10° NNW 04:45:55 80° W 04:51:55 10° S
Cosmos 1328 Rocket 3.6 04:41:53 10° S 04:46:17 83° E 04:50:41 10° N
ARIANE 5 R/B 2.9 04:41:22 10° NNE 04:46:22 65° ESE 04:51:20 10° S
Cosmos 2227 Rocket 2.8 04:41:28 10° S 04:47:02 60° ESE 04:52:38 10° NNE
Cosmos 44 Rocket 3.3 04:43:55 16° SW 04:47:58 81° NW 04:53:11 10° NE
COSMO-SKYMED 1 3.7 04:44:13 10° SE 04:48:23 47° ENE 04:52:34 10° N
Cosmos 1386 Rocket 4.5 04:44:55 10° SSW 04:51:08 62° WNW 04:57:18 10° N
Meteor 1-27 Rocket 3.9 04:48:56 10° SSW 04:54:25 53° WNW 05:00:04 10° N
DMSP B5D2-2 4.2 04:50:30 10° S 04:55:36 50° W 05:00:45 10° NNW
CZ-2D R/B 4.3 04:52:25 10° NNE 04:56:43 57° E 05:01:00 10° S
Helios 1A 3.0 04:56:05 10° S 05:00:04 51° W 05:04:04 10° NNW
ATLAS 2AS CENTAUR R/B 4.3 04:57:09 10° WNW 05:02:52 24° N 05:08:23 10° NE
Meteor 1-19 Rocket 4.2 04:58:31 10° SSW 05:03:57 56° WNW 05:09:19 10° N
Cosmos 1269 Rocket 4.2 04:59:06 10° NNW 05:04:14 51° WSW 05:09:18 10° S
IRS-P3 4.2 04:59:48 10° NNE 05:05:12 85° ESE 05:10:32 10° SSW
Cosmos 1709 Rocket 4.0 05:00:47 10° SSW 05:07:10 78° W 05:13:33 10° N
Cosmos 1238 4.1 05:04:31 10° N 05:07:35 90° ESE 05:10:38 10° S
Cosmos 1805 3.3 05:05:13 10° N 05:09:01 78° E 05:12:47 10° SSE
Cosmos 614 Rocket 4.4 05:04:44 10° NW 05:09:29 38° WSW 05:14:14 10° S
Cosmos 1140 Rocket 4.0 05:07:35 10° NNW 05:12:49 65° ENE 05:18:01 10° SSE
Cosmos 1633 Rocket 3.4 05:09:19 10° NNW 05:13:28 42° W 05:17:37 10° SSW
Meteor 2-4 Rocket 3.9 05:08:15 10° S 05:14:10 89° E 05:20:00 10° NNE
Cosmos 1980 4.3 05:09:56 10° NW 05:14:59 35° WSW 05:20:02 10° S
Cosmos 1484 Rocket 3.5 05:12:03 10° N 05:15:16 30° WNW 05:18:28 10° SW
ATLAS CENTAUR R/B 1.3 05:12:19 10° NW 05:15:53 69° NE 05:19:28 10° SE
YAOGAN 6 4.4 05:16:54 10° NW 05:18:27 13° WNW 05:19:15 12° WNW
Cosmos 1745 Rocket 4.4 05:15:27 10° SW 05:21:27 43° WNW 05:27:31 10° N
H-2A R/B 2.2 05:17:00 10° NNE 05:22:30 89° WNW 05:27:53 10° SSW
BlueWalker 3 4.1 05:23:53 10° SW 05:23:57 10° SW 05:24:03 10° SW
Meteor 1-18 Rocket 4.3 05:19:31 10° SSW 05:25:24 80° WNW 05:31:12 10° N
PSLV R/B 4.2 05:26:16 10° NNE 05:30:22 59° E 05:34:27 10° S
Aureole 3 4.3 05:29:01 10° SSE 05:31:49 38° E 05:34:39 10° NNE
Cosmos 1869 Rocket 4.3 05:27:45 10° N 05:32:01 58° ENE 05:36:17 10° SSE
Envisat 4.5 05:29:59 10° NNW 05:33:19 18° WNW 05:36:39 10° W
Cosmos 2251 Rocket 3.6 05:30:45 10° NNW 05:36:01 85° ENE 05:41:16 10° SSE
SKYMED 2 3.6 05:32:10 10° S 05:36:25 57° W 05:40:44 10° NNW
Cosmos 1939 Rocket 3.0 05:35:06 10° N 05:38:51 50° WNW 05:42:38 10° SSW
